Year,Month,Day,Hour,Minute,Value (Times are PST for insolation in W/m^2)
2014,11,01,00,00,0.00
2014,11,01,00,01,0.00
2014,11,01,00,02,0.00
2014,11,01,00,03,0.00
2014,11,01,00,04,0.00
2014,11,01,00,05,0.00
2014,11,01,00,06,0.00
2014,11,01,00,07,0.00
2014,11,01,00,08,0.00
2014,11,01,00,09,0.00
2014,11,01,00,10,0.00
2014,11,01,00,11,0.00
2014,11,01,00,12,0.00
2014,11,01,00,13,0.00
2014,11,01,00,14,0.00
2014,11,01,00,15,0.00
2014,11,01,00,16,0.00
2014,11,01,00,17,0.00
2014,11,01,00,18,0.00
2014,11,01,00,19,0.00
2014,11,01,00,20,0.00
2014,11,01,00,21,0.00
2014,11,01,00,22,0.00
2014,11,01,00,23,0.00
2014,11,01,00,24,0.00
2014,11,01,00,25,0.00
2014,11,01,00,26,0.00
2014,11,01,00,27,0.00
2014,11,01,00,28,0.00
2014,11,01,00,29,0.00
2014,11,01,00,30,0.00
2014,11,01,00,31,0.00
2014,11,01,00,32,0.00
2014,11,01,00,33,0.00
2014,11,01,00,34,0.00
2014,11,01,00,35,0.00
2014,11,01,00,36,0.00
2014,11,01,00,37,0.00
2014,11,01,00,38,0.00
2014,11,01,00,39,0.00
2014,11,01,00,40,0.00
2014,11,01,00,41,0.00
2014,11,01,00,42,0.00
2014,11,01,00,43,0.00
2014,11,01,00,44,0.00
2014,11,01,00,45,0.00
2014,11,01,00,46,0.00
2014,11,01,00,47,0.00
2014,11,01,00,48,0.00
2014,11,01,00,49,0.00
2014,11,01,00,50,0.00
2014,11,01,00,51,0.00
2014,11,01,00,52,0.00
2014,11,01,00,53,0.00
2014,11,01,00,54,0.00
2014,11,01,00,55,0.00
2014,11,01,00,56,0.00
2014,11,01,00,57,0.00
2014,11,01,00,58,0.00
2014,11,01,00,59,0.00
2014,11,01,01,00,0.00
2014,11,01,01,01,0.00
2014,11,01,01,02,0.00
2014,11,01,01,03,0.00
2014,11,01,01,04,0.00
2014,11,01,01,05,0.00
2014,11,01,01,06,0.00
2014,11,01,01,07,0.00
2014,11,01,01,08,0.00
2014,11,01,01,09,0.00
2014,11,01,01,10,0.00
2014,11,01,01,11,0.00
2014,11,01,01,12,0.00
2014,11,01,01,13,0.00
2014,11,01,01,14,0.00
2014,11,01,01,15,0.00
2014,11,01,01,16,0.00
2014,11,01,01,17,0.00
2014,11,01,01,18,0.00
2014,11,01,01,19,0.00
2014,11,01,01,20,0.00
2014,11,01,01,21,0.00
2014,11,01,01,22,0.00
2014,11,01,01,23,0.00
2014,11,01,01,24,0.00
2014,11,01,01,25,0.00
2014,11,01,01,26,0.00
2014,11,01,01,27,0.00
2014,11,01,01,28,0.00
2014,11,01,01,29,0.00
2014,11,01,01,30,0.00
2014,11,01,01,31,0.00
2014,11,01,01,32,0.00
2014,11,01,01,33,0.00
2014,11,01,01,34,0.00
2014,11,01,01,35,0.00
2014,11,01,01,36,0.00
2014,11,01,01,37,0.00
2014,11,01,01,38,0.00
2014,11,01,01,39,0.00
2014,11,01,01,40,0.00
2014,11,01,01,41,0.00
2014,11,01,01,42,0.00
2014,11,01,01,43,0.00
2014,11,01,01,44,0.00
2014,11,01,01,45,0.00
2014,11,01,01,46,0.00
2014,11,01,01,47,0.00
2014,11,01,01,48,0.00
2014,11,01,01,49,0.00
2014,11,01,01,50,0.00
2014,11,01,01,51,0.00
2014,11,01,01,52,0.00
2014,11,01,01,53,0.00
2014,11,01,01,54,0.00
2014,11,01,01,55,0.00
2014,11,01,01,56,0.00
2014,11,01,01,57,0.00
2014,11,01,01,58,0.00
2014,11,01,01,59,0.00
2014,11,01,02,00,0.00
2014,11,01,02,01,0.00
2014,11,01,02,02,0.00
2014,11,01,02,03,0.00
2014,11,01,02,04,0.00
2014,11,01,02,05,0.00
2014,11,01,02,06,0.00
2014,11,01,02,07,0.00
2014,11,01,02,08,0.00
2014,11,01,02,09,0.00
2014,11,01,02,10,0.00
2014,11,01,02,11,0.00
2014,11,01,02,12,0.00
2014,11,01,02,13,0.00
2014,11,01,02,14,0.00
2014,11,01,02,15,0.00
2014,11,01,02,16,0.00
2014,11,01,02,17,0.00
2014,11,01,02,18,0.00
2014,11,01,02,19,0.00
2014,11,01,02,20,0.00
2014,11,01,02,21,0.00
2014,11,01,02,22,0.00
2014,11,01,02,23,0.00
2014,11,01,02,24,0.00
2014,11,01,02,25,0.00
2014,11,01,02,26,0.00
2014,11,01,02,27,0.00
2014,11,01,02,28,0.00
2014,11,01,02,29,0.00
2014,11,01,02,30,0.00
2014,11,01,02,31,0.00
2014,11,01,02,32,0.00
2014,11,01,02,33,0.00
2014,11,01,02,34,0.00
2014,11,01,02,35,0.00
2014,11,01,02,36,0.00
2014,11,01,02,37,0.00
2014,11,01,02,38,0.00
2014,11,01,02,39,0.00
2014,11,01,02,40,0.00
2014,11,01,02,41,0.00
2014,11,01,02,42,0.00
2014,11,01,02,43,0.00
2014,11,01,02,44,0.00
2014,11,01,02,45,0.00
2014,11,01,02,46,0.00
2014,11,01,02,47,0.00
2014,11,01,02,48,0.00
2014,11,01,02,49,0.00
2014,11,01,02,50,0.00
2014,11,01,02,51,0.00
2014,11,01,02,52,0.00
2014,11,01,02,53,0.00
2014,11,01,02,54,0.00
2014,11,01,02,55,0.00
2014,11,01,02,56,0.00
2014,11,01,02,57,0.00
2014,11,01,02,58,0.00
2014,11,01,02,59,0.00
2014,11,01,03,00,0.00
2014,11,01,03,01,0.00
2014,11,01,03,02,0.00
2014,11,01,03,03,0.00
2014,11,01,03,04,0.00
2014,11,01,03,05,0.00
2014,11,01,03,06,0.00
2014,11,01,03,07,0.00
2014,11,01,03,08,0.00
2014,11,01,03,09,0.00
2014,11,01,03,10,0.00
2014,11,01,03,11,0.00
2014,11,01,03,12,0.00
2014,11,01,03,13,0.00
2014,11,01,03,14,0.00
2014,11,01,03,15,0.00
2014,11,01,03,16,0.00
2014,11,01,03,17,0.00
2014,11,01,03,18,0.00
2014,11,01,03,19,0.00
2014,11,01,03,20,0.00
2014,11,01,03,21,0.00
2014,11,01,03,22,0.00
2014,11,01,03,23,0.00
2014,11,01,03,24,0.00
2014,11,01,03,25,0.00
2014,11,01,03,26,0.00
2014,11,01,03,27,0.00
2014,11,01,03,28,0.00
2014,11,01,03,29,0.00
2014,11,01,03,30,0.00
2014,11,01,03,31,0.00
2014,11,01,03,32,0.00
2014,11,01,03,33,0.00
2014,11,01,03,34,0.00
2014,11,01,03,35,0.00
2014,11,01,03,36,0.00
2014,11,01,03,37,0.00
2014,11,01,03,38,0.00
2014,11,01,03,39,0.00
2014,11,01,03,40,0.00
2014,11,01,03,41,0.00
2014,11,01,03,42,0.00
2014,11,01,03,43,0.00
2014,11,01,03,44,0.00
2014,11,01,03,45,0.00
2014,11,01,03,46,0.00
2014,11,01,03,47,0.00
2014,11,01,03,48,0.00
2014,11,01,03,49,0.00
2014,11,01,03,50,0.00
2014,11,01,03,51,0.00
2014,11,01,03,52,0.00
2014,11,01,03,53,0.00
2014,11,01,03,54,0.00
2014,11,01,03,55,0.00
2014,11,01,03,56,0.00
2014,11,01,03,57,0.00
2014,11,01,03,58,0.00
2014,11,01,03,59,0.00
2014,11,01,04,00,0.00
2014,11,01,04,01,0.00
2014,11,01,04,02,0.00
2014,11,01,04,03,0.00
2014,11,01,04,04,0.00
2014,11,01,04,05,0.00
2014,11,01,04,06,0.00
2014,11,01,04,07,0.00
2014,11,01,04,08,0.00
2014,11,01,04,09,0.00
2014,11,01,04,10,0.00
2014,11,01,04,11,0.00
2014,11,01,04,12,0.00
2014,11,01,04,13,0.00
2014,11,01,04,14,0.00
2014,11,01,04,15,0.00
2014,11,01,04,16,0.00
2014,11,01,04,17,0.00
2014,11,01,04,18,0.00
2014,11,01,04,19,0.00
2014,11,01,04,20,0.00
2014,11,01,04,21,0.00
2014,11,01,04,22,0.00
2014,11,01,04,23,0.00
2014,11,01,04,24,0.00
2014,11,01,04,25,0.00
2014,11,01,04,26,0.00
2014,11,01,04,27,0.00
2014,11,01,04,28,0.00
2014,11,01,04,29,0.00
2014,11,01,04,30,0.00
2014,11,01,04,31,0.00
2014,11,01,04,32,0.00
2014,11,01,04,33,0.00
2014,11,01,04,34,0.00
2014,11,01,04,35,0.00
2014,11,01,04,36,0.00
2014,11,01,04,37,0.00
2014,11,01,04,38,0.00
2014,11,01,04,39,0.00
2014,11,01,04,40,0.00
2014,11,01,04,41,0.00
2014,11,01,04,42,0.00
2014,11,01,04,43,0.00
2014,11,01,04,44,0.00
2014,11,01,04,45,0.00
2014,11,01,04,46,0.00
2014,11,01,04,47,0.00
2014,11,01,04,48,0.00
2014,11,01,04,49,0.00
2014,11,01,04,50,0.00
2014,11,01,04,51,0.00
2014,11,01,04,52,0.00
2014,11,01,04,53,0.00
2014,11,01,04,54,0.00
2014,11,01,04,55,0.00
2014,11,01,04,56,0.00
2014,11,01,04,57,0.00
2014,11,01,04,58,0.00
2014,11,01,04,59,0.00
2014,11,01,05,00,0.00
2014,11,01,05,01,0.00
2014,11,01,05,02,0.00
2014,11,01,05,03,0.00
2014,11,01,05,04,0.00
2014,11,01,05,05,0.00
2014,11,01,05,06,0.00
2014,11,01,05,07,0.00
2014,11,01,05,08,0.00
2014,11,01,05,09,0.00
2014,11,01,05,10,0.00
2014,11,01,05,11,0.00
2014,11,01,05,12,0.00
2014,11,01,05,13,0.00
2014,11,01,05,14,0.00
2014,11,01,05,15,0.00
2014,11,01,05,16,0.00
2014,11,01,05,17,0.00
2014,11,01,05,18,0.00
2014,11,01,05,19,0.00
2014,11,01,05,20,0.00
2014,11,01,05,21,0.00
2014,11,01,05,22,0.00
2014,11,01,05,23,0.00
2014,11,01,05,24,0.00
2014,11,01,05,25,0.00
2014,11,01,05,26,0.00
2014,11,01,05,27,0.00
2014,11,01,05,28,0.00
2014,11,01,05,29,0.00
2014,11,01,05,30,0.00
2014,11,01,05,31,0.00
2014,11,01,05,32,0.00
2014,11,01,05,33,0.00
2014,11,01,05,34,0.00
2014,11,01,05,35,0.00
2014,11,01,05,36,0.00
2014,11,01,05,37,0.00
2014,11,01,05,38,0.00
2014,11,01,05,39,0.00
2014,11,01,05,40,0.00
2014,11,01,05,41,0.00
2014,11,01,05,42,0.00
2014,11,01,05,43,0.00
2014,11,01,05,44,0.00
2014,11,01,05,45,0.00
2014,11,01,05,46,0.00
2014,11,01,05,47,0.00
2014,11,01,05,48,0.00
2014,11,01,05,49,0.00
2014,11,01,05,50,0.00
2014,11,01,05,51,0.00
2014,11,01,05,52,0.00
2014,11,01,05,53,0.00
2014,11,01,05,54,0.00
2014,11,01,05,55,0.00
2014,11,01,05,56,0.00
2014,11,01,05,57,0.00
2014,11,01,05,58,0.00
2014,11,01,05,59,0.00
2014,11,01,06,00,0.00
2014,11,01,06,01,0.00
2014,11,01,06,02,0.00
2014,11,01,06,03,0.00
2014,11,01,06,04,0.00
2014,11,01,06,05,0.00
2014,11,01,06,06,0.00
2014,11,01,06,07,0.00
2014,11,01,06,08,0.00
2014,11,01,06,09,0.00
2014,11,01,06,10,0.00
2014,11,01,06,11,0.00
2014,11,01,06,12,0.00
2014,11,01,06,13,0.00
2014,11,01,06,14,0.00
2014,11,01,06,15,0.00
2014,11,01,06,16,0.00
2014,11,01,06,17,0.00
2014,11,01,06,18,0.00
2014,11,01,06,19,0.00
2014,11,01,06,20,0.00
2014,11,01,06,21,0.00
2014,11,01,06,22,0.00
2014,11,01,06,23,0.00
2014,11,01,06,24,0.00
2014,11,01,06,25,0.00
2014,11,01,06,26,0.00
2014,11,01,06,27,0.00
2014,11,01,06,28,0.00
2014,11,01,06,29,0.00
2014,11,01,06,30,0.00
2014,11,01,06,31,0.00
2014,11,01,06,32,0.00
2014,11,01,06,33,0.00
2014,11,01,06,34,0.00
2014,11,01,06,35,0.00
2014,11,01,06,36,0.00
2014,11,01,06,37,0.00
2014,11,01,06,38,0.00
2014,11,01,06,39,0.00
2014,11,01,06,40,0.00
2014,11,01,06,41,0.00
2014,11,01,06,42,0.00
2014,11,01,06,43,0.00
2014,11,01,06,44,0.00
2014,11,01,06,45,0.00
2014,11,01,06,46,0.00
2014,11,01,06,47,0.00
2014,11,01,06,48,0.00
2014,11,01,06,49,0.00
2014,11,01,06,50,0.00
2014,11,01,06,51,0.00
2014,11,01,06,52,0.00
2014,11,01,06,53,0.00
2014,11,01,06,54,0.00
2014,11,01,06,55,0.00
2014,11,01,06,56,0.00
2014,11,01,06,57,0.00
2014,11,01,06,58,0.00
2014,11,01,06,59,0.00
2014,11,01,07,00,0.00
2014,11,01,07,01,0.00
2014,11,01,07,02,0.00
2014,11,01,07,03,0.00
2014,11,01,07,04,0.00
2014,11,01,07,05,0.00
2014,11,01,07,06,0.00
2014,11,01,07,07,0.00
2014,11,01,07,08,0.00
2014,11,01,07,09,0.00
2014,11,01,07,10,0.00
2014,11,01,07,11,0.00
2014,11,01,07,12,0.00
2014,11,01,07,13,0.00
2014,11,01,07,14,0.00
2014,11,01,07,15,0.00
2014,11,01,07,16,0.00
2014,11,01,07,17,0.00
2014,11,01,07,18,0.00
2014,11,01,07,19,0.00
2014,11,01,07,20,0.00
2014,11,01,07,21,0.00
2014,11,01,07,22,0.00
2014,11,01,07,23,0.00
2014,11,01,07,24,0.00
2014,11,01,07,25,0.00
2014,11,01,07,26,0.00
2014,11,01,07,27,0.00
2014,11,01,07,28,0.00
2014,11,01,07,29,0.00
2014,11,01,07,30,0.00
2014,11,01,07,31,0.00
2014,11,01,07,32,0.00
2014,11,01,07,33,0.00
2014,11,01,07,34,0.00
2014,11,01,07,35,0.00
2014,11,01,07,36,0.00
2014,11,01,07,37,0.00
2014,11,01,07,38,0.00
2014,11,01,07,39,0.00
2014,11,01,07,40,0.00
2014,11,01,07,41,0.00
2014,11,01,07,42,0.00
2014,11,01,07,43,0.00
2014,11,01,07,44,0.00
2014,11,01,07,45,0.00
2014,11,01,07,46,0.00
2014,11,01,07,47,0.00
2014,11,01,07,48,0.00
2014,11,01,07,49,0.00
2014,11,01,07,50,0.00
2014,11,01,07,51,0.00
2014,11,01,07,52,0.00
2014,11,01,07,53,0.00
2014,11,01,07,54,0.00
2014,11,01,07,55,0.00
2014,11,01,07,56,0.00
2014,11,01,07,57,0.00
2014,11,01,07,58,0.00
2014,11,01,07,59,0.00
2014,11,01,08,00,0.00
2014,11,01,08,01,0.00
2014,11,01,08,02,0.00
2014,11,01,08,03,0.00
2014,11,01,08,04,0.00
2014,11,01,08,05,0.00
2014,11,01,08,06,0.00
2014,11,01,08,07,0.00
2014,11,01,08,08,0.00
2014,11,01,08,09,0.00
2014,11,01,08,10,0.00
2014,11,01,08,11,0.00
2014,11,01,08,12,0.00
2014,11,01,08,13,0.00
2014,11,01,08,14,0.00
2014,11,01,08,15,0.00
2014,11,01,08,16,0.00
2014,11,01,08,17,0.00
2014,11,01,08,18,0.00
2014,11,01,08,19,0.00
2014,11,01,08,20,0.00
2014,11,01,08,21,0.00
2014,11,01,08,22,0.00
2014,11,01,08,23,0.00
2014,11,01,08,24,0.00
2014,11,01,08,25,5.00
2014,11,01,08,26,5.00
2014,11,01,08,27,5.00
2014,11,01,08,28,5.00
2014,11,01,08,29,5.00
2014,11,01,08,30,5.00
2014,11,01,08,31,5.00
2014,11,01,08,32,5.00
2014,11,01,08,33,5.00
2014,11,01,08,34,5.00
2014,11,01,08,35,5.00
2014,11,01,08,36,5.00
2014,11,01,08,37,5.00
2014,11,01,08,38,7.00
2014,11,01,08,39,7.00
2014,11,01,08,40,7.00
2014,11,01,08,41,9.00
2014,11,01,08,42,9.00
2014,11,01,08,43,9.00
2014,11,01,08,44,9.00
2014,11,01,08,45,9.00
2014,11,01,08,46,9.00
2014,11,01,08,47,9.00
2014,11,01,08,48,7.00
2014,11,01,08,49,7.00
2014,11,01,08,50,9.00
2014,11,01,08,51,9.00
2014,11,01,08,52,11.00
2014,11,01,08,53,11.00
2014,11,01,08,54,11.00
2014,11,01,08,55,11.00
2014,11,01,08,56,11.00
2014,11,01,08,57,11.00
2014,11,01,08,58,12.00
2014,11,01,08,59,12.00
2014,11,01,09,00,14.00
2014,11,01,09,01,14.00
2014,11,01,09,02,14.00
2014,11,01,09,03,14.00
2014,11,01,09,04,14.00
2014,11,01,09,05,14.00
2014,11,01,09,06,16.00
2014,11,01,09,07,16.00
2014,11,01,09,08,16.00
2014,11,01,09,09,16.00
2014,11,01,09,10,14.00
2014,11,01,09,11,14.00
2014,11,01,09,12,12.00
2014,11,01,09,13,12.00
2014,11,01,09,14,14.00
2014,11,01,09,15,14.00
2014,11,01,09,16,14.00
2014,11,01,09,17,14.00
2014,11,01,09,18,14.00
2014,11,01,09,19,16.00
2014,11,01,09,20,16.00
2014,11,01,09,21,16.00
2014,11,01,09,22,18.00
2014,11,01,09,23,18.00
2014,11,01,09,24,18.00
2014,11,01,09,25,19.00
2014,11,01,09,26,19.00
2014,11,01,09,27,21.00
2014,11,01,09,28,23.00
2014,11,01,09,29,23.00
2014,11,01,09,30,25.00
2014,11,01,09,31,25.00
2014,11,01,09,32,25.00
2014,11,01,09,33,23.00
2014,11,01,09,34,25.00
2014,11,01,09,35,25.00
2014,11,01,09,36,25.00
2014,11,01,09,37,26.00
2014,11,01,09,38,26.00
2014,11,01,09,39,26.00
2014,11,01,09,40,28.00
2014,11,01,09,41,28.00
2014,11,01,09,42,30.00
2014,11,01,09,43,30.00
2014,11,01,09,44,32.00
2014,11,01,09,45,32.00
2014,11,01,09,46,32.00
2014,11,01,09,47,33.00
2014,11,01,09,48,33.00
2014,11,01,09,49,32.00
2014,11,01,09,50,32.00
2014,11,01,09,51,32.00
2014,11,01,09,52,32.00
2014,11,01,09,53,32.00
2014,11,01,09,54,32.00
2014,11,01,09,55,32.00
2014,11,01,09,56,33.00
2014,11,01,09,57,33.00
2014,11,01,09,58,35.00
2014,11,01,09,59,35.00
2014,11,01,10,00,35.00
2014,11,01,10,01,37.00
2014,11,01,10,02,39.00
2014,11,01,10,03,42.00
2014,11,01,10,04,42.00
2014,11,01,10,05,44.00
2014,11,01,10,06,46.00
2014,11,01,10,07,46.00
2014,11,01,10,08,46.00
2014,11,01,10,09,47.00
2014,11,01,10,10,47.00
2014,11,01,10,11,47.00
2014,11,01,10,12,47.00
2014,11,01,10,13,47.00
2014,11,01,10,14,44.00
2014,11,01,10,15,44.00
2014,11,01,10,16,44.00
2014,11,01,10,17,44.00
2014,11,01,10,18,46.00
2014,11,01,10,19,47.00
2014,11,01,10,20,47.00
2014,11,01,10,21,46.00
2014,11,01,10,22,46.00
2014,11,01,10,23,44.00
2014,11,01,10,24,46.00
2014,11,01,10,25,46.00
2014,11,01,10,26,47.00
2014,11,01,10,27,46.00
2014,11,01,10,28,46.00
2014,11,01,10,29,44.00
2014,11,01,10,30,44.00
2014,11,01,10,31,44.00
2014,11,01,10,32,44.00
2014,11,01,10,33,44.00
2014,11,01,10,34,44.00
2014,11,01,10,35,46.00
2014,11,01,10,36,49.00
2014,11,01,10,37,51.00
2014,11,01,10,38,54.00
2014,11,01,10,39,53.00
2014,11,01,10,40,49.00
2014,11,01,10,41,47.00
2014,11,01,10,42,46.00
2014,11,01,10,43,46.00
2014,11,01,10,44,51.00
2014,11,01,10,45,53.00
2014,11,01,10,46,53.00
2014,11,01,10,47,53.00
2014,11,01,10,48,53.00
2014,11,01,10,49,54.00
2014,11,01,10,50,56.00
2014,11,01,10,51,56.00
2014,11,01,10,52,54.00
2014,11,01,10,53,54.00
2014,11,01,10,54,53.00
2014,11,01,10,55,51.00
2014,11,01,10,56,51.00
2014,11,01,10,57,49.00
2014,11,01,10,58,49.00
2014,11,01,10,59,49.00
2014,11,01,11,00,51.00
2014,11,01,11,01,54.00
2014,11,01,11,02,54.00
2014,11,01,11,03,56.00
2014,11,01,11,04,56.00
2014,11,01,11,05,56.00
2014,11,01,11,06,56.00
2014,11,01,11,07,60.00
2014,11,01,11,08,62.00
2014,11,01,11,09,62.00
2014,11,01,11,10,63.00
2014,11,01,11,11,67.00
2014,11,01,11,12,69.00
2014,11,01,11,13,74.00
2014,11,01,11,14,76.00
2014,11,01,11,15,77.00
2014,11,01,11,16,77.00
2014,11,01,11,17,77.00
2014,11,01,11,18,77.00
2014,11,01,11,19,77.00
2014,11,01,11,20,79.00
2014,11,01,11,21,83.00
2014,11,01,11,22,84.00
2014,11,01,11,23,88.00
2014,11,01,11,24,88.00
2014,11,01,11,25,83.00
2014,11,01,11,26,76.00
2014,11,01,11,27,67.00
2014,11,01,11,28,63.00
2014,11,01,11,29,65.00
2014,11,01,11,30,67.00
2014,11,01,11,31,62.00
2014,11,01,11,32,62.00
2014,11,01,11,33,62.00
2014,11,01,11,34,63.00
2014,11,01,11,35,65.00
2014,11,01,11,36,74.00
2014,11,01,11,37,81.00
2014,11,01,11,38,86.00
2014,11,01,11,39,90.00
2014,11,01,11,40,95.00
2014,11,01,11,41,98.00
2014,11,01,11,42,104.00
2014,11,01,11,43,105.00
2014,11,01,11,44,109.00
2014,11,01,11,45,113.00
2014,11,01,11,46,114.00
2014,11,01,11,47,114.00
2014,11,01,11,48,113.00
2014,11,01,11,49,113.00
2014,11,01,11,50,114.00
2014,11,01,11,51,116.00
2014,11,01,11,52,120.00
2014,11,01,11,53,123.00
2014,11,01,11,54,123.00
2014,11,01,11,55,121.00
2014,11,01,11,56,118.00
2014,11,01,11,57,116.00
2014,11,01,11,58,114.00
2014,11,01,11,59,114.00
2014,11,01,12,00,118.00
2014,11,01,12,01,120.00
2014,11,01,12,02,121.00
2014,11,01,12,03,123.00
2014,11,01,12,04,123.00
2014,11,01,12,05,125.00
2014,11,01,12,06,128.00
2014,11,01,12,07,132.00
2014,11,01,12,08,135.00
2014,11,01,12,09,137.00
2014,11,01,12,10,141.00
2014,11,01,12,11,146.00
2014,11,01,12,12,151.00
2014,11,01,12,13,151.00
2014,11,01,12,14,149.00
2014,11,01,12,15,148.00
2014,11,01,12,16,149.00
2014,11,01,12,17,151.00
2014,11,01,12,18,151.00
2014,11,01,12,19,155.00
2014,11,01,12,20,156.00
2014,11,01,12,21,156.00
2014,11,01,12,22,156.00
2014,11,01,12,23,156.00
2014,11,01,12,24,158.00
2014,11,01,12,25,155.00
2014,11,01,12,26,148.00
2014,11,01,12,27,141.00
2014,11,01,12,28,134.00
2014,11,01,12,29,125.00
2014,11,01,12,30,123.00
2014,11,01,12,31,125.00
2014,11,01,12,32,128.00
2014,11,01,12,33,128.00
2014,11,01,12,34,142.00
2014,11,01,12,35,160.00
2014,11,01,12,36,163.00
2014,11,01,12,37,163.00
2014,11,01,12,38,165.00
2014,11,01,12,39,165.00
2014,11,01,12,40,169.00
2014,11,01,12,41,176.00
2014,11,01,12,42,176.00
2014,11,01,12,43,176.00
2014,11,01,12,44,172.00
2014,11,01,12,45,169.00
2014,11,01,12,46,165.00
2014,11,01,12,47,158.00
2014,11,01,12,48,158.00
2014,11,01,12,49,158.00
2014,11,01,12,50,158.00
2014,11,01,12,51,160.00
2014,11,01,12,52,160.00
2014,11,01,12,53,158.00
2014,11,01,12,54,156.00
2014,11,01,12,55,153.00
2014,11,01,12,56,151.00
2014,11,01,12,57,149.00
2014,11,01,12,58,151.00
2014,11,01,12,59,153.00
2014,11,01,13,00,155.00
2014,11,01,13,01,156.00
2014,11,01,13,02,158.00
2014,11,01,13,03,160.00
2014,11,01,13,04,163.00
2014,11,01,13,05,167.00
2014,11,01,13,06,167.00
2014,11,01,13,07,167.00
2014,11,01,13,08,169.00
2014,11,01,13,09,171.00
2014,11,01,13,10,172.00
2014,11,01,13,11,172.00
2014,11,01,13,12,174.00
2014,11,01,13,13,174.00
2014,11,01,13,14,174.00
2014,11,01,13,15,174.00
2014,11,01,13,16,176.00
2014,11,01,13,17,178.00
2014,11,01,13,18,183.00
2014,11,01,13,19,186.00
2014,11,01,13,20,190.00
2014,11,01,13,21,192.00
2014,11,01,13,22,190.00
2014,11,01,13,23,188.00
2014,11,01,13,24,188.00
2014,11,01,13,25,192.00
2014,11,01,13,26,195.00
2014,11,01,13,27,199.00
2014,11,01,13,28,202.00
2014,11,01,13,29,206.00
2014,11,01,13,30,209.00
2014,11,01,13,31,214.00
2014,11,01,13,32,218.00
2014,11,01,13,33,216.00
2014,11,01,13,34,218.00
2014,11,01,13,35,223.00
2014,11,01,13,36,246.00
2014,11,01,13,37,297.00
2014,11,01,13,38,297.00
2014,11,01,13,39,415.00
2014,11,01,13,40,322.00
2014,11,01,13,41,322.00
2014,11,01,13,42,543.00
2014,11,01,13,43,550.00
2014,11,01,13,44,578.00
2014,11,01,13,45,578.00
2014,11,01,13,46,636.00
2014,11,01,13,47,636.00
2014,11,01,13,48,636.00
2014,11,01,13,49,636.00
2014,11,01,13,50,508.00
2014,11,01,13,51,434.00
2014,11,01,13,52,434.00
2014,11,01,13,53,517.00
2014,11,01,13,54,517.00
2014,11,01,13,55,599.00
2014,11,01,13,56,599.00
2014,11,01,13,57,519.00
2014,11,01,13,58,519.00
2014,11,01,13,59,350.00
2014,11,01,14,00,265.00
2014,11,01,14,01,285.00
2014,11,01,14,02,330.00
2014,11,01,14,03,578.00
2014,11,01,14,04,584.00
2014,11,01,14,05,573.00
2014,11,01,14,06,573.00
2014,11,01,14,07,512.00
2014,11,01,14,08,552.00
2014,11,01,14,09,504.00
2014,11,01,14,10,580.00
2014,11,01,14,11,577.00
2014,11,01,14,12,570.00
2014,11,01,14,13,566.00
2014,11,01,14,14,564.00
2014,11,01,14,15,554.00
2014,11,01,14,16,543.00
2014,11,01,14,17,540.00
2014,11,01,14,18,533.00
2014,11,01,14,19,526.00
2014,11,01,14,20,510.00
2014,11,01,14,21,510.00
2014,11,01,14,22,512.00
2014,11,01,14,23,512.00
2014,11,01,14,24,501.00
2014,11,01,14,25,483.00
2014,11,01,14,26,464.00
2014,11,01,14,27,457.00
2014,11,01,14,28,450.00
2014,11,01,14,29,441.00
2014,11,01,14,30,432.00
2014,11,01,14,31,424.00
2014,11,01,14,32,410.00
2014,11,01,14,33,406.00
2014,11,01,14,34,403.00
2014,11,01,14,35,399.00
2014,11,01,14,36,397.00
2014,11,01,14,37,397.00
2014,11,01,14,38,394.00
2014,11,01,14,39,390.00
2014,11,01,14,40,387.00
2014,11,01,14,41,380.00
2014,11,01,14,42,378.00
2014,11,01,14,43,374.00
2014,11,01,14,44,371.00
2014,11,01,14,45,371.00
2014,11,01,14,46,367.00
2014,11,01,14,47,366.00
2014,11,01,14,48,366.00
2014,11,01,14,49,364.00
2014,11,01,14,50,362.00
2014,11,01,14,51,359.00
2014,11,01,14,52,359.00
2014,11,01,14,53,357.00
2014,11,01,14,54,357.00
2014,11,01,14,55,355.00
2014,11,01,14,56,353.00
2014,11,01,14,57,352.00
2014,11,01,14,58,350.00
2014,11,01,14,59,350.00
2014,11,01,15,00,346.00
2014,11,01,15,01,345.00
2014,11,01,15,02,345.00
2014,11,01,15,03,341.00
2014,11,01,15,04,339.00
2014,11,01,15,05,339.00
2014,11,01,15,06,336.00
2014,11,01,15,07,334.00
2014,11,01,15,08,332.00
2014,11,01,15,09,332.00
2014,11,01,15,10,330.00
2014,11,01,15,11,329.00
2014,11,01,15,12,327.00
2014,11,01,15,13,325.00
2014,11,01,15,14,323.00
2014,11,01,15,15,322.00
2014,11,01,15,16,320.00
2014,11,01,15,17,320.00
2014,11,01,15,18,318.00
2014,11,01,15,19,315.00
2014,11,01,15,20,313.00
2014,11,01,15,21,311.00
2014,11,01,15,22,311.00
2014,11,01,15,23,309.00
2014,11,01,15,24,308.00
2014,11,01,15,25,304.00
2014,11,01,15,26,302.00
2014,11,01,15,27,301.00
2014,11,01,15,28,299.00
2014,11,01,15,29,297.00
2014,11,01,15,30,297.00
2014,11,01,15,31,294.00
2014,11,01,15,32,292.00
2014,11,01,15,33,292.00
2014,11,01,15,34,288.00
2014,11,01,15,35,287.00
2014,11,01,15,36,287.00
2014,11,01,15,37,283.00
2014,11,01,15,38,283.00
2014,11,01,15,39,279.00
2014,11,01,15,40,278.00
2014,11,01,15,41,278.00
2014,11,01,15,42,274.00
2014,11,01,15,43,272.00
2014,11,01,15,44,271.00
2014,11,01,15,45,269.00
2014,11,01,15,46,269.00
2014,11,01,15,47,267.00
2014,11,01,15,48,264.00
2014,11,01,15,49,262.00
2014,11,01,15,50,260.00
2014,11,01,15,51,258.00
2014,11,01,15,52,257.00
2014,11,01,15,53,257.00
2014,11,01,15,54,260.00
2014,11,01,15,55,183.00
2014,11,01,15,56,183.00
2014,11,01,15,57,90.00
2014,11,01,15,58,125.00
2014,11,01,15,59,93.00
2014,11,01,16,00,113.00
2014,11,01,16,01,113.00
2014,11,01,16,02,230.00
2014,11,01,16,03,237.00
2014,11,01,16,04,158.00
2014,11,01,16,05,67.00
2014,11,01,16,06,62.00
2014,11,01,16,07,62.00
2014,11,01,16,08,234.00
2014,11,01,16,09,229.00
2014,11,01,16,10,225.00
2014,11,01,16,11,223.00
2014,11,01,16,12,220.00
2014,11,01,16,13,220.00
2014,11,01,16,14,221.00
2014,11,01,16,15,216.00
2014,11,01,16,16,218.00
2014,11,01,16,17,216.00
2014,11,01,16,18,216.00
2014,11,01,16,19,176.00
2014,11,01,16,20,211.00
2014,11,01,16,21,209.00
2014,11,01,16,22,207.00
2014,11,01,16,23,204.00
2014,11,01,16,24,204.00
2014,11,01,16,25,200.00
2014,11,01,16,26,197.00
2014,11,01,16,27,197.00
2014,11,01,16,28,195.00
2014,11,01,16,29,192.00
2014,11,01,16,30,188.00
2014,11,01,16,31,185.00
2014,11,01,16,32,181.00
2014,11,01,16,33,178.00
2014,11,01,16,34,174.00
2014,11,01,16,35,167.00
2014,11,01,16,36,165.00
2014,11,01,16,37,162.00
2014,11,01,16,38,158.00
2014,11,01,16,39,153.00
2014,11,01,16,40,141.00
2014,11,01,16,41,132.00
2014,11,01,16,42,141.00
2014,11,01,16,43,146.00
2014,11,01,16,44,83.00
2014,11,01,16,45,120.00
2014,11,01,16,46,39.00
2014,11,01,16,47,28.00
2014,11,01,16,48,26.00
2014,11,01,16,49,26.00
2014,11,01,16,50,72.00
2014,11,01,16,51,84.00
2014,11,01,16,52,58.00
2014,11,01,16,53,26.00
2014,11,01,16,54,28.00
2014,11,01,16,55,26.00
2014,11,01,16,56,25.00
2014,11,01,16,57,25.00
2014,11,01,16,58,25.00
2014,11,01,16,59,23.00
2014,11,01,17,00,23.00
2014,11,01,17,01,23.00
2014,11,01,17,02,23.00
2014,11,01,17,03,23.00
2014,11,01,17,04,21.00
2014,11,01,17,05,21.00
2014,11,01,17,06,21.00
2014,11,01,17,07,21.00
2014,11,01,17,08,21.00
2014,11,01,17,09,21.00
2014,11,01,17,10,21.00
2014,11,01,17,11,19.00
2014,11,01,17,12,19.00
2014,11,01,17,13,19.00
2014,11,01,17,14,19.00
2014,11,01,17,15,19.00
2014,11,01,17,16,19.00
2014,11,01,17,17,19.00
2014,11,01,17,18,19.00
2014,11,01,17,19,19.00
2014,11,01,17,20,19.00
2014,11,01,17,21,18.00
2014,11,01,17,22,18.00
2014,11,01,17,23,18.00
2014,11,01,17,24,18.00
2014,11,01,17,25,16.00
2014,11,01,17,26,16.00
2014,11,01,17,27,16.00
2014,11,01,17,28,16.00
2014,11,01,17,29,16.00